AU224 Weather Reports


Display with metric or nautical units.
time (UTC)temp
F
wind
direction
speed
MPH
gust
MPH
rain 1hr
in
rain 24hr
in
rain mn
in
humidity
%
barometer
mb
20260507014554 45 0 0.0 3.0 0.00 0.01 0.00 78 1007.5
20260507013053 45 0 0.0 0.0 0.00 0.01 0.00 76 1007.5
20260507011553 45 0 0.0 2.0 0.00 0.01 0.00 77 1007.3
20260507010048 46 0 0.0 3.0 0.00 0.01 0.00 77 1007.5
20260507004550 46 0 0.0 3.0 0.00 0.01 0.00 76 1007.5
20260507003049 47 193 0.0 2.0 0.00 0.01 0.00 76 1007.5
20260507001541 47 0 0.0 2.0 0.00 0.01 0.00 75 1007.4
20260507000040 47 0 0.0 2.0 0.00 0.01 0.00 76 1007.5
20260506234551 47 0 0.0 3.0 0.00 0.01 0.00 76 1007.5
20260506233048 48 237 0.0 4.0 0.00 0.01 0.00 76 1007.5
20260506231552 48 0 0.0 6.0 0.00 0.01 0.00 76 1007.4
20260506230043 48 0 0.0 7.0 0.00 0.01 0.00 76 1007.2
20260506224549 48 0 0.0 4.0 0.00 0.01 0.00 76 1007.1
20260506223042 48 163 2.0 7.0 0.00 0.01 0.00 75 1007.2
20260506221549 48 0 0.0 9.0 0.00 0.01 0.00 75 1007.1
20260506220052 48 282 1.0 12.0 0.00 0.01 0.00 75 1007.1
20260506214546 48 0 1.0 6.0 0.00 0.01 0.01 76 1006.9
20260506213052 48 0 0.0 5.0 0.00 0.01 0.01 76 1006.9
20260506211547 49 360 0.0 8.0 0.00 0.01 0.01 76 1006.8
20260506210050 49 0 0.0 8.0 0.00 0.01 0.01 75 1006.8
20260506204548 49 285 0.0 10.0 0.00 0.02 0.01 75 1006.7
20260506203044 49 203 3.0 13.0 0.00 0.02 0.01 74 1006.5
20260506201544 48 214 2.0 13.0 0.00 0.02 0.01 74 1006.2
20260506200047 49 165 1.0 12.0 0.00 0.02 0.01 73 1006.1
20260506194547 49 271 1.0 8.0 0.00 0.02 0.01 73 1006.2
20260506193048 49 163 0.0 9.0 0.00 0.02 0.01 73 1006.1
20260506191547 50 196 0.0 9.0 0.00 0.02 0.01 72 1006.1
20260506190053 50 237 0.0 6.0 0.00 0.02 0.01 71 1006.1
20260506184551 50 360 1.0 8.0 0.00 0.02 0.01 71 1005.9
20260506183047 51 0 2.0 11.0 0.00 0.02 0.01 70 1005.8
20260506181543 51 0 0.0 11.0 0.00 0.02 0.01 69 1005.8
20260506180054 51 0 1.0 16.0 0.00 0.02 0.01 69 1005.3
20260506174548 51 202 0.0 10.0 0.00 0.02 0.01 70 1005.3
20260506173121 51 0 3.0 13.0 0.00 0.02 0.01 70 1004.6
20260506171544 52 0 3.0 16.0 0.00 0.02 0.01 69 1004.4
20260506170047 52 259 7.0 19.0 0.00 0.02 0.01 68 1004.3
20260506164555 52 173 6.0 20.0 0.00 0.02 0.01 68 1004.2
20260506163058 53 360 7.0 20.0 0.00 0.02 0.01 67 1004.3
20260506161603 54 253 10.0 0.0 0.00 0.02 0.01 72 1004.1
20260506160047 54 0 5.0 16.0 0.00 0.02 0.01 73 1003.9
20260506154551 54 229 4.0 15.0 0.00 0.02 0.01 69 1003.9
20260506153056 61 16 8.0 37.0 0.00 0.02 0.01 57 1003.1
20260506151550 64 192 1.0 8.0 0.00 0.01 0.00 59 1002.2
20260506150046 64 169 1.0 9.0 0.00 0.01 0.00 60 1001.9
20260506144546 62 0 1.0 8.0 0.00 0.01 0.00 62 1002.1
20260506143045 60 0 0.0 4.0 0.00 0.01 0.00 67 1002.0
20260506141543 59 180 0.0 7.0 0.00 0.01 0.00 64 1002.2
20260506140049 60 232 3.0 9.0 0.00 0.01 0.00 66 1002.3
20260506134545 56 0 2.0 8.0 0.00 0.01 0.00 72 1002.7
20260506133047 59 179 1.0 6.0 0.00 0.01 0.00 66 1002.8
20260506131550 59 0 0.0 7.0 0.00 0.01 0.00 66 1002.4
20260506130058 59 0 0.0 0.0 0.00 0.00 0.00 60 1002.2
20260506124557 60 0 0.0 4.0 0.00 0.00 0.00 60 1001.9
20260506123048 61 0 0.0 4.0 0.00 0.00 0.00 58 1001.9
20260506121545 62 0 0.0 2.0 0.00 0.00 0.00 58 1002.0
20260506120049 62 58 0.0 7.0 0.00 0.00 0.00 57 1002.0
20260506114550 62 0 3.0 10.0 0.00 0.00 0.00 58 1002.0
20260506113051 62 0 0.0 7.0 0.00 0.00 0.00 57 1002.3
20260506111543 63 66 2.0 9.0 0.00 0.00 0.00 55 1002.4
20260506110055 63 0 0.0 6.0 0.00 0.00 0.00 55 1002.2
20260506104551 64 0 0.0 7.0 0.00 0.00 0.00 56 1002.6
20260506103050 63 0 0.0 5.0 0.00 0.00 0.00 55 1002.8
20260506101553 62 0 2.0 5.0 0.00 0.00 0.00 58 1003.1
20260506100104 62 360 0.0 6.0 0.00 0.00 0.00 60 1003.3
20260506094550 61 0 0.0 4.0 0.00 0.00 0.00 59 1003.1
20260506093046 60 0 0.0 4.0 0.00 0.00 0.00 62 1003.1
20260506091542 59 0 0.0 1.0 0.00 0.00 0.00 65 1003.3
20260506090045 59 0 0.0 3.0 0.00 0.00 0.00 61 1003.4
20260506084607 58 0 0.0 3.0 0.00 0.00 0.00 63 1003.3
20260506083046 58 0 0.0 3.0 0.00 0.00 0.00 63 1003.4
20260506081553 57 0 0.0 0.0 0.00 0.00 0.00 66 1003.4
20260506073051 56 0 0.0 0.0 0.00 0.00 0.00 67 1003.4
20260506071551 55 0 0.0 0.0 0.00 0.00 0.00 72 1003.6
20260506061548 53 0 0.0 2.0 0.00 0.00 0.00 76 1003.6
20260506044637 45 0 0.0 0.0 0.00 0.00 0.00 82 1003.9
20260506043043 46 0 0.0 0.0 0.00 0.00 0.00 82 1004.0
20260506041556 46 0 0.0 0.0 0.00 0.00 0.00 82 1004.1
20260506040051 46 0 0.0 0.0 0.00 0.00 0.00 83 1004.2
20260506034621 46 0 0.0 0.0 0.00 0.00 0.00 83 1004.3
20260506033045 46 0 0.0 0.0 0.00 0.00 0.00 83 1004.6
20260506031546 46 0 0.0 0.0 0.00 0.00 0.00 82 1004.6
20260506030049 45 0 0.0 0.0 0.00 0.00 0.00 82 1004.8
20260506024544 45 0 0.0 0.0 0.00 0.00 0.00 81 1004.9
20260506023108 45 0 0.0 0.0 0.00 0.00 0.00 80 1005.0
20260506021547 45 0 0.0 0.0 0.00 0.00 0.00 80 1005.1
20260506020051 46 0 0.0 0.0 0.00 0.00 0.00 79 1005.0